CW2274 Weather Reports


time (UTC)temp
C
wind
direction
speed
KPH
gust
KPH
rain 1hr
cm
rain 24hr
cm
rain mn
cm
humidity
%
barometer
mb
20260905214519 36 264 8.0 19.3 0.00 0.00 0.00 30 1014.7
20260905214014 36 4 4.8 16.1 0.00 0.00 0.00 32 1014.8
20260905213513 35 2 3.2 16.1 0.00 0.00 0.00 31 1014.7
20260905213027 36 342 3.2 11.3 0.00 0.00 0.00 31 1014.8
20260905212522 36 298 4.8 11.3 0.00 0.00 0.00 31 1014.8
20260905212017 36 13 4.8 11.3 0.00 0.00 0.00 30 1014.8
20260905211529 36 296 4.8 17.7 0.00 0.00 0.00 31 1014.9
20260905211024 36 284 4.8 17.7 0.00 0.00 0.00 31 1015.0
20260905210518 36 279 6.4 17.7 0.00 0.00 0.00 31 1015.1
20260905210028 35 325 4.8 17.7 0.00 0.00 0.00 31 1015.2
20260905205528 35 13 3.2 14.5 0.00 0.00 0.00 32 1015.3
20260905205022 35 308 6.4 14.5 0.00 0.00 0.00 32 1015.2
20260905204517 35 3 8.0 14.5 0.00 0.00 0.00 32 1015.3
20260905204031 35 16 6.4 14.5 0.00 0.00 0.00 32 1015.3
20260905203526 35 331 3.2 11.3 0.00 0.00 0.00 32 1015.5
20260905203020 36 306 3.2 14.5 0.00 0.00 0.00 32 1015.6
20260905202514 36 287 3.2 14.5 0.00 0.00 0.00 31 1015.8
20260905202032 35 319 4.8 11.3 0.00 0.00 0.00 32 1015.9
20260905201528 35 344 3.2 11.3 0.00 0.00 0.00 33 1015.9
20260905201022 35 260 3.2 12.9 0.00 0.00 0.00 34 1016.0
20260905200517 35 9 6.4 14.5 0.00 0.00 0.00 32 1016.0
20260905200043 35 299 4.8 14.5 0.00 0.00 0.00 33 1016.2
20260905195523 35 310 3.2 9.7 0.00 0.00 0.00 31 1016.2
20260905195017 35 347 1.6 12.9 0.00 0.00 0.00 33 1016.3
20260905194515 35 295 4.8 12.9 0.00 0.00 0.00 33 1016.4
20260905194029 35 287 3.2 12.9 0.00 0.00 0.00 33 1016.4
20260905193523 35 286 6.4 14.5 0.00 0.00 0.00 33 1016.5
20260905193017 35 7 6.4 14.5 0.00 0.00 0.00 32 1016.4
20260905192532 35 13 3.2 11.3 0.00 0.00 0.00 32 1016.5
20260905192026 35 338 3.2 9.7 0.00 0.00 0.00 33 1016.6
20260905191520 35 359 3.2 14.5 0.00 0.00 0.00 33 1016.6
20260905191015 34 258 4.8 14.5 0.00 0.00 0.00 35 1016.7
20260905190513 34 58 4.8 8.0 0.00 0.00 0.00 33 1016.8
20260905190040 34 308 1.6 4.8 0.00 0.00 0.00 34 1016.9
20260905185520 34 303 3.2 11.3 0.00 0.00 0.00 33 1017.1
20260905185014 35 300 3.2 11.3 0.00 0.00 0.00 34 1017.1
20260905184529 33 360 4.8 11.3 0.00 0.00 0.00 34 1017.1
20260905184023 34 23 3.2 11.3 0.00 0.00 0.00 34 1017.2
20260905183518 35 21 3.2 11.3 0.00 0.00 0.00 32 1017.3
20260905183016 34 299 4.8 11.3 0.00 0.00 0.00 34 1017.3
20260905182531 34 287 4.8 14.5 0.00 0.00 0.00 35 1017.3
20260905182027 33 356 6.4 16.1 0.00 0.00 0.00 35 1017.4
20260905181521 33 360 8.0 16.1 0.00 0.00 0.00 36 1017.5
20260905181018 33 305 3.2 14.5 0.00 0.00 0.00 35 1017.5
20260905180514 34 342 3.2 14.5 0.00 0.00 0.00 35 1017.5
20260905180040 34 290 3.2 12.9 0.00 0.00 0.00 36 1017.5
20260905175521 33 291 6.4 12.9 0.00 0.00 0.00 35 1017.6
20260905175020 33 355 4.8 11.3 0.00 0.00 0.00 36 1017.5
20260905174516 33 336 4.8 11.3 0.00 0.00 0.00 37 1017.5
20260905174031 34 352 3.2 11.3 0.00 0.00 0.00 36 1017.7
20260905173526 33 286 3.2 11.3 0.00 0.00 0.00 38 1017.6
20260905173022 34 334 1.6 4.8 0.00 0.00 0.00 38 1017.7
20260905172517 33 335 3.2 6.4 0.00 0.00 0.00 38 1017.6
20260905172013 33 294 1.6 12.9 0.00 0.00 0.00 41 1017.7
20260905171513 32 284 3.2 12.9 0.00 0.00 0.00 39 1017.9
20260905171029 32 2 1.6 6.4 0.00 0.00 0.00 42 1017.8
20260905170525 31 2 1.6 6.4 0.00 0.00 0.00 43 1017.8
20260905170032 32 24 3.2 6.4 0.00 0.00 0.00 44 1017.8
20260905165513 32 54 3.2 6.4 0.00 0.00 0.00 45 1018.0
20260905165028 31 55 3.2 4.8 0.00 0.00 0.00 47 1017.9
20260905164524 31 56 3.2 8.0 0.00 0.00 0.00 46 1017.9
20260905164024 30 58 3.2 8.0 0.00 0.00 0.00 47 1017.9
20260905163520 30 61 4.8 9.7 0.00 0.00 0.00 49 1017.7
20260905163014 31 62 3.2 6.4 0.00 0.00 0.00 49 1017.8
20260905162529 30 63 3.2 6.4 0.00 0.00 0.00 52 1017.8
20260905162025 30 63 3.2 4.8 0.00 0.00 0.00 52 1017.9
20260905161521 31 62 1.6 3.2 0.00 0.00 0.00 50 1017.9
20260905161017 30 63 1.6 4.8 0.00 0.00 0.00 53 1017.9
20260905160516 30 63 1.6 4.8 0.00 0.00 0.00 53 1017.9
20260905160044 29 63 1.6 4.8 0.00 0.00 0.00 53 1018.0
20260905155525 29 63 3.2 4.8 0.00 0.00 0.00 52 1018.0
20260905155021 28 63 3.2 4.8 0.00 0.00 0.00 57 1017.9
20260905154518 28 62 1.6 4.8 0.00 0.00 0.00 57 1017.9
20260905154013 28 62 1.6 4.8 0.00 0.00 0.00 59 1017.9
20260905153529 28 63 1.6 4.8 0.00 0.00 0.00 60 1017.9
20260905153024 28 62 1.6 6.4 0.00 0.00 0.00 59 1018.0
20260905152523 28 63 1.6 6.4 0.00 0.00 0.00 61 1018.0
20260905152019 27 61 3.2 4.8 0.00 0.00 0.00 61 1018.0
20260905151515 28 61 1.6 4.8 0.00 0.00 0.00 61 1018.0
20260905151031 27 61 1.6 6.4 0.00 0.00 0.00 63 1017.9
20260905150526 27 61 1.6 9.7 0.00 0.00 0.00 64 1017.9
20260905150032 26 62 3.2 6.4 0.00 0.00 0.00 64 1017.9
20260905145512 26 62 3.2 9.7 0.00 0.00 0.00 65 1017.8
20260905145031 26 61 3.2 9.7 0.00 0.00 0.00 66 1017.8
20260905144526 26 69 4.8 9.7 0.00 0.00 0.00 64 1017.8
20260905144020 26 68 3.2 9.7 0.00 0.00 0.00 67 1017.9
20260905143516 26 68 4.8 9.7 0.00 0.00 0.00 66 1017.8
20260905143012 26 68 3.2 4.8 0.00 0.00 0.00 66 1017.8
20260905142527 25 68 1.6 6.4 0.00 0.00 0.00 67 1017.7
20260905142023 25 67 3.2 8.0 0.00 0.00 0.00 68 1017.6
20260905141522 25 56 4.8 8.0 0.00 0.00 0.00 69 1017.5
20260905141017 25 55 4.8 8.0 0.00 0.00 0.00 69 1017.5
20260905140531 25 54 4.8 6.4 0.00 0.00 0.00 70 1017.3
20260905140039 25 54 3.2 4.8 0.00 0.00 0.00 69 1017.5
20260905135519 25 54 1.6 3.2 0.00 0.00 0.00 70 1017.5
20260905135014 24 54 1.6 3.2 0.00 0.00 0.00 71 1017.3
20260905134529 24 54 1.6 4.8 0.00 0.00 0.00 71 1017.2
20260905134024 24 54 1.6 4.8 0.00 0.00 0.00 71 1017.1
20260905133523 24 54 1.6 3.2 0.00 0.00 0.00 71 1017.2
20260905132514 23 54 0.0 3.2 0.00 0.00 0.00 74 1016.9
20260905132031 23 54 0.0 1.6 0.00 0.00 0.00 74 1016.9
20260905131526 23 54 0.0 3.2 0.00 0.00 0.00 75 1016.8
20260905131021 23 54 1.6 3.2 0.00 0.00 0.00 74 1016.7
20260905130518 23 54 1.6 3.2 0.00 0.00 0.00 74 1016.6
20260905130029 23 54 1.6 3.2 0.00 0.00 0.00 74 1016.6
20260905125531 23 54 1.6 3.2 0.00 0.00 0.00 73 1016.5
20260905125026 23 54 1.6 3.2 0.00 0.00 0.00 74 1016.4
20260905124521 23 54 0.0 1.6 0.00 0.00 0.00 73 1016.5
20260905124017 23 54 0.0 3.2 0.00 0.00 0.00 73 1016.4
20260905123531 23 54 1.6 3.2 0.00 0.00 0.00 74 1016.4
20260905123028 23 54 0.0 3.2 0.00 0.00 0.00 72 1016.5
20260905122527 23 54 0.0 3.2 0.00 0.00 0.00 72 1016.4
20260905122022 23 54 1.6 3.2 0.00 0.00 0.00 73 1016.3
20260905121517 23 54 1.6 3.2 0.00 0.00 0.00 72 1016.3
20260905121013 23 54 0.0 1.6 0.00 0.00 0.00 72 1016.3
20260905120528 23 54 0.0 3.2 0.00 0.00 0.00 72 1016.3
20260905120035 23 54 0.0 4.8 0.00 0.00 0.00 71 1016.3
20260905115515 23 54 1.6 4.8 0.00 0.00 0.00 70 1016.2
20260905115014 23 54 1.6 3.2 0.00 0.00 0.00 70 1016.3
20260905114530 23 54 0.0 3.2 0.00 0.00 0.00 70 1016.2
20260905114025 23 54 1.6 3.2 0.00 0.00 0.00 70 1016.3
20260905113522 23 54 1.6 3.2 0.00 0.00 0.00 71 1016.2
20260905113017 23 54 1.6 4.8 0.00 0.00 0.00 71 1016.3
20260905112513 24 54 1.6 4.8 0.00 0.00 0.00 70 1016.2
20260905112028 24 54 1.6 4.8 0.00 0.00 0.00 69 1016.2
20260905111525 24 54 1.6 4.8 0.00 0.00 0.00 69 1016.2
20260905111025 24 54 1.6 4.8 0.00 0.00 0.00 69 1016.3
20260905110521 24 54 3.2 6.4 0.00 0.00 0.00 69 1016.3
20260905110029 24 54 4.8 6.4 0.00 0.00 0.00 68 1016.2
20260905105529 24 54 3.2 4.8 0.00 0.00 0.00 69 1016.3
20260905105025 24 54 1.6 3.2 0.00 0.00 0.00 69 1016.2
20260905104521 24 54 1.6 3.2 0.00 0.00 0.00 69 1016.3
20260905104016 24 54 1.6 3.2 0.00 0.00 0.00 68 1016.2
20260905103515 24 54 1.6 3.2 0.00 0.00 0.00 68 1016.3
20260905103030 24 54 0.0 1.6 0.00 0.00 0.00 69 1016.2
20260905102526 24 54 0.0 3.2 0.00 0.00 0.00 68 1016.2
20260905102022 25 54 0.0 3.2 0.00 0.00 0.00 67 1016.3
20260905101517 25 54 1.6 3.2 0.00 0.00 0.00 67 1016.3
20260905101031 25 54 1.6 3.2 0.00 0.00 0.00 67 1016.2
20260905100527 25 54 1.6 3.2 0.00 0.00 0.00 67 1016.1
20260905100039 25 54 0.0 1.6 0.00 0.00 0.00 67 1016.0
20260905095519 25 54 0.0 1.6 0.00 0.00 0.00 67 1016.2
20260905095015 25 54 0.0 1.6 0.00 0.00 0.00 67 1016.1
20260905094529 25 54 0.0 1.6 0.00 0.00 0.00 67 1016.2
20260905094023 25 54 0.0 3.2 0.00 0.00 0.00 66 1016.2
20260905093517 25 54 0.0 3.2 0.00 0.00 0.00 66 1016.2
20260905093012 25 54 1.6 4.8 0.00 0.00 0.00 65 1016.0
20260905092527 25 54 1.6 4.8 0.00 0.00 0.00 65 1016.1
20260905092026 25 54 1.6 4.8 0.00 0.00 0.00 65 1016.2
20260905091520 25 54 1.6 3.2 0.00 0.00 0.00 65 1016.2
20260905091014 25 54 0.0 1.6 0.00 0.00 0.00 65 1016.2
20260905090528 25 54 0.0 3.2 0.00 0.00 0.00 67 1016.1
20260905090034 25 54 1.6 3.2 0.00 0.00 0.00 66 1016.2
20260905085514 25 54 1.6 3.2 0.00 0.00 0.00 65 1016.2
20260905085029 25 54 1.6 3.2 0.00 0.00 0.00 65 1016.2
20260905084527 25 54 0.0 1.6 0.00 0.00 0.00 65 1016.2
20260905084022 25 54 0.0 3.2 0.00 0.00 0.00 65 1016.2
20260905083516 25 54 1.6 3.2 0.00 0.00 0.00 64 1016.3
20260905083031 25 54 1.6 1.6 0.00 0.00 0.00 63 1016.2
20260905082526 25 54 0.0 3.2 0.00 0.00 0.00 63 1016.3
20260905082021 26 54 3.2 3.2 0.00 0.00 0.00 62 1016.3
20260905081516 26 54 0.0 0.0 0.00 0.00 0.00 60 1016.4
20260905081015 26 54 0.0 0.0 0.00 0.00 0.00 60 1016.4
20260905080530 26 54 0.0 0.0 0.00 0.00 0.00 60 1016.5
20260905080036 26 54 0.0 3.2 0.00 0.00 0.00 59 1016.5
20260905075516 26 54 0.0 4.8 0.00 0.00 0.00 58 1016.5
20260905075030 27 54 1.6 4.8 0.00 0.00 0.00 57 1016.5
20260905074524 27 54 3.2 3.2 0.00 0.00 0.00 58 1016.5
20260905074018 26 54 1.6 3.2 0.00 0.00 0.00 58 1016.5
20260905073512 26 54 0.0 3.2 0.00 0.00 0.00 59 1016.5
20260905073031 26 54 0.0 3.2 0.00 0.00 0.00 58 1016.4
20260905072524 27 54 1.6 3.2 0.00 0.00 0.00 57 1016.4
20260905072019 27 54 1.6 3.2 0.00 0.00 0.00 57 1016.3
20260905071514 27 54 0.0 3.2 0.00 0.00 0.00 56 1016.3
20260905071029 27 54 0.0 4.8 0.00 0.00 0.00 56 1016.3
20260905070523 27 54 3.2 6.4 0.00 0.00 0.00 56 1016.3
20260905070030 27 54 3.2 6.4 0.00 0.00 0.00 56 1016.3
20260905065514 27 54 1.6 4.8 0.00 0.00 0.00 57 1016.3
20260905065029 27 54 1.6 3.2 0.00 0.00 0.00 56 1016.2
20260905064523 27 54 1.6 1.6 0.00 0.00 0.00 56 1016.2
20260905064017 27 54 0.0 6.4 0.00 0.00 0.00 55 1016.2
20260905063511 28 54 3.2 6.4 0.00 0.00 0.00 55 1016.0
20260905063026 28 57 3.2 4.8 0.00 0.00 0.00 55 1016.2
20260905062520 28 57 1.6 6.4 0.00 0.00 0.00 53 1016.1
20260905062015 28 57 3.2 6.4 0.00 0.00 0.00 54 1016.1
20260905061513 28 56 3.2 6.4 0.00 0.00 0.00 53 1016.1
20260905061029 28 56 3.2 6.4 0.00 0.00 0.00 53 1016.0
20260905060523 28 56 3.2 3.2 0.00 0.00 0.00 54 1016.1
20260905060029 28 56 0.0 8.0 0.00 0.00 0.00 53 1016.0
20260905055529 28 56 1.6 8.0 0.00 0.00 0.00 52 1015.9
20260905055023 28 53 3.2 11.3 0.00 0.00 0.00 52 1015.9
20260905054517 29 52 4.8 11.3 0.00 0.00 0.00 50 1015.9
20260905054016 29 51 4.8 11.3 0.00 0.00 0.00 50 1016.1
20260905053530 29 35 6.4 8.0 0.00 0.00 0.00 47 1015.9
20260905053024 29 269 3.2 6.4 0.00 0.00 0.00 47 1015.9
20260905052518 29 269 3.2 6.4 0.00 0.00 0.00 47 1015.8
20260905052012 29 269 1.6 3.2 0.00 0.00 0.00 46 1015.8
20260905051526 29 269 1.6 3.2 0.00 0.00 0.00 46 1015.6
20260905051020 30 269 1.6 6.4 0.00 0.00 0.00 46 1015.5
20260905050515 30 269 1.6 6.4 0.00 0.00 0.00 45 1015.6
20260905050027 30 269 1.6 9.7 0.00 0.00 0.00 44 1015.5
20260905045526 30 269 3.2 9.7 0.00 0.00 0.00 44 1015.5
20260905045021 30 277 3.2 9.7 0.00 0.00 0.00 43 1015.4
20260905044514 30 261 3.2 11.3 0.00 0.00 0.00 43 1015.5
20260905044029 30 260 3.2 11.3 0.00 0.00 0.00 43 1015.4
20260905043523 30 259 4.8 9.7 0.00 0.00 0.00 43 1015.4
20260905043018 30 240 4.8 11.3 0.00 0.00 0.00 42 1015.4
20260905042517 30 238 4.8 8.0 0.00 0.00 0.00 42 1015.4
20260905042011 30 236 4.8 8.0 0.00 0.00 0.00 42 1015.4
20260905041525 30 233 3.2 6.4 0.00 0.00 0.00 42 1015.6
20260905041019 31 233 3.2 6.4 0.00 0.00 0.00 41 1015.6
20260905040513 31 232 3.2 9.7 0.00 0.00 0.00 40 1015.5
20260905040039 31 231 4.8 9.7 0.00 0.00 0.00 40 1015.6
20260905035518 31 231 4.8 8.0 0.00 0.00 0.00 40 1015.5
20260905035012 31 236 3.2 8.0 0.00 0.00 0.00 40 1015.4
20260905034530 31 236 4.8 8.0 0.00 0.00 0.00 40 1015.4
20260905034025 31 236 3.2 8.0 0.00 0.00 0.00 40 1015.4
20260905033520 31 236 3.2 9.7 0.00 0.00 0.00 40 1015.3
20260905033014 31 248 3.2 12.9 0.00 0.00 0.00 39 1015.3
20260905032529 31 239 6.4 12.9 0.00 0.00 0.00 39 1015.2
20260905032023 31 294 4.8 8.0 0.00 0.00 0.00 39 1015.1
20260905031517 31 296 1.6 4.8 0.00 0.00 0.00 40 1015.0
20260905031015 31 296 1.6 6.4 0.00 0.00 0.00 40 1014.9
20260905030529 31 296 3.2 6.4 0.00 0.00 0.00 40 1014.9
20260905030036 31 296 3.2 4.8 0.00 0.00 0.00 40 1014.9
20260905025516 31 296 3.2 6.4 0.00 0.00 0.00 39 1014.7
20260905025030 31 296 1.6 6.4 0.00 0.00 0.00 39 1014.8
20260905024525 31 298 1.6 6.4 0.00 0.00 0.00 39 1014.6
20260905024018 31 298 3.2 4.8 0.00 0.00 0.00 39 1014.6
20260905023513 31 298 1.6 3.2 0.00 0.00 0.00 39 1014.5
20260905023032 31 298 0.0 4.8 0.00 0.00 0.00 39 1014.5
20260905022526 31 298 0.0 6.4 0.00 0.00 0.00 39 1014.4
20260905022022 31 298 3.2 6.4 0.00 0.00 0.00 39 1014.4
20260905021516 31 298 3.2 4.8 0.00 0.00 0.00 40 1014.5
20260905021032 31 298 1.6 3.2 0.00 0.00 0.00 38 1014.4
20260905020526 32 298 0.0 3.2 0.00 0.00 0.00 38 1014.4
20260905020032 32 298 1.6 3.2 0.00 0.00 0.00 37 1014.3
20260905015517 32 298 1.6 4.8 0.00 0.00 0.00 37 1014.2
20260905015032 32 298 1.6 6.4 0.00 0.00 0.00 36 1014.2
20260905014525 32 298 3.2 6.4 0.00 0.00 0.00 34 1014.3
20260905014020 32 298 3.2 6.4 0.00 0.00 0.00 35 1014.1
20260905013515 32 299 3.2 6.4 0.00 0.00 0.00 35 1014.1
20260905013029 32 299 3.2 8.0 0.00 0.00 0.00 33 1014.2
20260905012524 33 300 3.2 12.9 0.00 0.00 0.00 33 1014.2
20260905012018 33 296 4.8 12.9 0.00 0.00 0.00 32 1014.1
20260905011516 33 287 3.2 9.7 0.00 0.00 0.00 31 1014.2
20260905011030 33 281 3.2 9.7 0.00 0.00 0.00 33 1014.1
20260905010524 33 281 3.2 14.5 0.00 0.00 0.00 33 1013.9
20260905010031 33 281 3.2 14.5 0.00 0.00 0.00 31 1014.0
20260905005531 33 285 6.4 14.5 0.00 0.00 0.00 29 1014.0
20260905005024 33 303 3.2 16.1 0.00 0.00 0.00 29 1014.0
20260905004518 34 304 3.2 11.3 0.00 0.00 0.00 29 1013.9
20260905004016 34 319 3.2 8.0 0.00 0.00 0.00 29 1013.9
20260905003531 34 293 1.6 6.4 0.00 0.00 0.00 31 1013.9
20260905003025 34 293 3.2 11.3 0.00 0.00 0.00 30 1014.0
20260905002519 35 287 3.2 14.5 0.00 0.00 0.00 30 1013.8
20260905002013 35 295 4.8 14.5 0.00 0.00 0.00 29 1013.8
20260905001528 35 295 4.8 14.5 0.00 0.00 0.00 30 1013.8
20260905001022 35 298 4.8 12.9 0.00 0.00 0.00 30 1013.7
20260905000516 35 286 4.8 12.9 0.00 0.00 0.00 30 1013.7
20260905000046 35 306 3.2 12.9 0.00 0.00 0.00 30 1013.7
20260904235527 35 285 4.8 14.5 0.00 0.00 0.00 29 1013.8
20260904235021 35 290 6.4 17.7 0.00 0.00 0.00 30 1013.6
20260904234516 35 283 8.0 17.7 0.00 0.00 0.00 30 1013.6
20260904234032 35 320 3.2 11.3 0.00 0.00 0.00 31 1013.8
20260904233527 35 322 3.2 11.3 0.00 0.00 0.00 30 1013.8
20260904233022 35 294 4.8 14.5 0.00 0.00 0.00 30 1013.9
20260904232521 35 324 3.2 14.5 0.00 0.00 0.00 31 1014.0
20260904232016 34 25 4.8 9.7 0.00 0.00 0.00 32 1013.8
20260904231531 35 310 1.6 8.0 0.00 0.00 0.00 33 1013.9
20260904231027 35 309 3.2 11.3 0.00 0.00 0.00 32 1014.0
20260904230522 35 304 3.2 11.3 0.00 0.00 0.00 32 1014.0
20260904230030 35 292 4.8 16.1 0.00 0.00 0.00 32 1014.0
20260904225531 35 264 8.0 16.1 0.00 0.00 0.00 31 1013.9
20260904225025 35 353 6.4 12.9 0.00 0.00 0.00 31 1014.0
20260904224525 35 343 3.2 12.9 0.00 0.00 0.00 30 1014.1
20260904224019 36 282 3.2 12.9 0.00 0.00 0.00 30 1014.1
20260904223514 35 288 3.2 16.1 0.00 0.00 0.00 31 1014.1
20260904223028 36 289 8.0 16.1 0.00 0.00 0.00 29 1014.2
20260904222523 35 214 8.0 14.5 0.00 0.00 0.00 29 1014.2
20260904222018 35 256 3.2 14.5 0.00 0.00 0.00 29 1014.1
20260904221513 36 255 4.8 16.1 0.00 0.00 0.00 28 1014.3
20260904221030 36 297 6.4 16.1 0.00 0.00 0.00 29 1014.4
20260904220523 36 277 8.0 14.5 0.00 0.00 0.00 29 1014.4
20260904220029 35 281 4.8 11.3 0.00 0.00 0.00 29 1014.4
20260904215527 36 313 4.8 17.7 0.00 0.00 0.00 27 1014.4
20260904215021 35 283 9.7 17.7 0.00 0.00 0.00 29 1014.4